GW7113 Weather Reports


Display with metric or nautical units.
time (UTC)temp
F
wind
direction
speed
MPH
gust
MPH
rain 1hr
in
rain 24hr
in
rain mn
in
humidity
%
barometer
mb
20260510033132 73 134 7.0 10.0 0.00 0.02 0.02 75 1013.2
20260510032632 73 139 6.0 9.0 0.00 0.02 0.02 75 1013.2
20260510031632 73 145 4.0 9.0 0.00 0.02 0.02 75 1013.1
20260510031131 73 124 5.0 9.0 0.00 0.02 0.02 75 1013.0
20260510030632 74 132 4.0 9.0 0.00 0.02 0.02 75 1013.1
20260510030132 74 125 5.0 9.0 0.00 0.02 0.02 75 1012.9
20260510025632 75 123 4.0 8.0 0.00 0.02 0.02 74 1012.9
20260510025131 75 111 5.0 10.0 0.00 0.02 0.02 74 1012.8
20260510024626 75 109 5.0 10.0 0.00 0.02 0.02 74 1012.6
20260510024119 75 90 5.0 8.0 0.00 0.02 0.02 74 1012.8
20260510023620 75 108 4.0 10.0 0.00 0.02 0.02 74 1012.5
20260510023119 75 140 6.0 10.0 0.00 0.02 0.02 74 1012.6
20260510022619 76 120 6.0 9.0 0.00 0.02 0.02 73 1012.5
20260510022119 76 124 5.0 10.0 0.00 0.02 0.02 73 1012.3
20260510021620 76 115 4.0 10.0 0.00 0.02 0.02 72 1012.2
20260510020619 76 120 6.0 10.0 0.00 0.02 0.02 71 1011.8
20260510020120 77 105 6.0 10.0 0.00 0.02 0.02 71 1011.9
20260510015620 77 107 6.0 10.0 0.00 0.02 0.02 70 1011.9
20260510015120 78 136 8.0 11.0 0.00 0.02 0.02 68 1012.1
20260510014620 78 114 7.0 13.0 0.00 0.02 0.02 67 1011.8
20260510014120 79 116 7.0 13.0 0.00 0.02 0.02 66 1011.6
20260510013608 80 101 6.0 17.0 0.00 0.02 0.02 64 1011.6
20260510013108 80 105 7.0 17.0 0.00 0.02 0.02 62 1011.4
20260510012608 81 102 4.0 10.0 0.00 0.02 0.02 59 1011.6
20260510012108 81 94 5.0 7.0 0.00 0.02 0.02 58 1011.4
20260510011108 82 69 4.0 7.0 0.00 0.02 0.02 57 1011.2
20260510010608 82 71 4.0 7.0 0.00 0.02 0.02 56 1011.3
20260510005608 84 70 3.0 7.0 0.00 0.02 0.02 52 1011.0
20260510004608 86 76 4.0 6.0 0.00 0.02 0.02 49 1011.0
20260510004107 89 71 3.0 6.0 0.00 0.02 0.02 46 1011.1
20260510003607 92 84 4.0 6.0 0.00 0.02 0.02 41 1011.1
20260510003328 95 101 2.0 3.0 0.00 0.02 0.02 39 1011.1
20260510002828 98 114 1.0 2.0 0.00 0.02 0.02 37 1011.1
20260510002107 101 114 1.0 2.0 0.00 0.02 0.02 39 1011.0
20260510001607 100 114 1.0 2.0 0.00 0.02 0.02 39 1011.1
20260510001107 99 114 0.0 2.0 0.00 0.02 0.02 39 1011.0
20260510000607 98 114 0.0 2.0 0.00 0.02 0.02 37 1011.1
20260510000108 98 114 0.0 2.0 0.00 0.02 0.02 39 1011.0
20260509235607 96 114 0.0 2.0 0.00 0.02 0.02 40 1011.0
20260509235108 95 114 0.0 2.0 0.00 0.02 0.02 39 1010.7
20260509234608 95 114 1.0 4.0 0.00 0.02 0.02 38 1011.1
20260509234108 94 114 2.0 4.0 0.00 0.02 0.02 38 1011.0
20260509233608 96 113 2.0 6.0 0.00 0.02 0.02 37 1011.1
20260509233337 98 135 2.0 6.0 0.00 0.02 0.02 34 1011.1
20260509232607 99 96 3.0 4.0 0.00 0.02 0.02 37 1010.8
20260509232108 100 83 1.0 4.0 0.00 0.02 0.02 33 1010.7
20260509231608 102 58 4.0 4.0 0.00 0.02 0.02 34 1010.8
20260509231107 101 22 1.0 6.0 0.00 0.02 0.02 35 1011.0
20260509230607 101 37 3.0 6.0 0.00 0.02 0.02 34 1011.0
20260509225607 102 338 0.0 4.0 0.00 0.02 0.02 33 1010.8
20260509225108 102 349 2.0 6.0 0.00 0.02 0.02 34 1011.1
20260509224608 102 310 0.0 6.0 0.00 0.02 0.02 34 1010.8
20260509224330 101 26 3.0 6.0 0.00 0.02 0.02 36 1011.1
20260509223607 103 43 2.0 6.0 0.00 0.02 0.02 35 1011.0
20260509223107 103 340 1.0 6.0 0.00 0.02 0.02 34 1011.1
20260509222607 102 16 2.0 8.0 0.00 0.02 0.02 36 1011.1
20260509222107 101 54 2.0 8.0 0.00 0.02 0.02 37 1011.2
20260509221556 99 347 2.0 7.0 0.00 0.02 0.02 38 1011.1
20260509221056 99 334 2.0 8.0 0.00 0.02 0.02 38 1011.2
20260509220815 100 326 4.0 9.0 0.00 0.02 0.02 37 1011.4
20260509220055 100 16 2.0 9.0 0.00 0.02 0.02 36 1011.3
20260509215555 98 7 4.0 8.0 0.00 0.02 0.02 39 1011.1
20260509215056 97 338 3.0 6.0 0.00 0.02 0.02 41 1011.1
20260509214556 96 298 2.0 7.0 0.00 0.02 0.02 41 1011.3
20260509214056 99 346 6.0 9.0 0.00 0.02 0.02 40 1011.5
20260509213556 99 327 5.0 9.0 0.00 0.02 0.02 36 1011.4
20260509213056 99 353 4.0 9.0 0.00 0.02 0.02 39 1011.3
20260509212556 99 292 2.0 9.0 0.00 0.02 0.02 39 1011.3
20260509212314 97 15 3.0 9.0 0.00 0.02 0.02 41 1011.5
20260509211555 96 329 3.0 9.0 0.00 0.02 0.02 41 1011.3
20260509211055 94 7 3.0 6.0 0.00 0.02 0.02 42 1011.4
20260509210555 91 321 2.0 9.0 0.00 0.02 0.02 46 1011.5
20260509210055 91 291 3.0 9.0 0.00 0.02 0.02 44 1011.6
20260509205555 92 265 3.0 7.0 0.00 0.02 0.02 43 1011.6
20260509205055 94 309 3.0 10.0 0.00 0.02 0.02 41 1011.8
20260509204555 94 267 3.0 10.0 0.00 0.02 0.02 45 1011.9
20260509204056 93 306 7.0 10.0 0.00 0.02 0.02 46 1012.1
20260509203556 93 324 4.0 9.0 0.00 0.02 0.02 42 1011.9
20260509203056 93 229 1.0 9.0 0.00 0.02 0.02 46 1012.0
20260509202817 91 349 4.0 6.0 0.00 0.02 0.02 46 1012.1
20260509202055 90 257 2.0 11.0 0.00 0.02 0.02 48 1012.2
20260509201555 91 206 6.0 11.0 0.00 0.02 0.02 46 1012.1
20260509201056 91 292 7.0 10.0 0.00 0.02 0.02 45 1012.2
20260509200556 91 275 5.0 10.0 0.00 0.02 0.02 49 1012.2
20260509200055 91 308 4.0 11.0 0.00 0.02 0.02 48 1012.4
20260509195556 90 138 2.0 11.0 0.00 0.02 0.02 50 1012.2
20260509195056 90 248 8.0 10.0 0.00 0.02 0.02 50 1012.5
20260509194556 89 245 7.0 14.0 0.00 0.02 0.02 52 1012.4
20260509194055 88 256 5.0 14.0 0.00 0.02 0.02 54 1012.6
20260509193555 87 273 3.0 8.0 0.00 0.02 0.02 53 1012.8
20260509193056 88 224 6.0 8.0 0.00 0.02 0.02 51 1012.9
20260509192556 90 245 2.0 8.0 0.00 0.02 0.02 48 1013.2
20260509192320 89 355 3.0 10.0 0.00 0.02 0.02 57 1013.3
20260509191555 88 240 4.0 13.0 0.00 0.02 0.02 53 1013.3
20260509191055 88 224 2.0 13.0 0.00 0.02 0.02 56 1013.4
20260509190555 86 191 5.0 10.0 0.00 0.02 0.02 56 1013.4
20260509190317 85 254 4.0 8.0 0.00 0.02 0.02 61 1013.5
20260509185555 84 235 5.0 13.0 0.00 0.02 0.02 59 1013.5
20260509185056 84 261 6.0 13.0 0.00 0.02 0.02 60 1013.5
20260509184055 86 208 4.0 7.0 0.00 0.02 0.02 57 1013.5
20260509183556 86 282 3.0 11.0 0.00 0.02 0.02 57 1013.6
20260509183055 86 335 5.0 11.0 0.00 0.02 0.02 56 1013.6
20260509182556 86 224 8.0 10.0 0.00 0.02 0.02 58 1013.7
20260509182056 85 177 7.0 11.0 0.00 0.02 0.02 59 1013.6
20260509181555 85 222 4.0 11.0 0.00 0.02 0.02 59 1013.9
20260509181320 85 184 8.0 15.0 0.00 0.02 0.02 60 1013.9
20260509180556 85 229 2.0 15.0 0.00 0.02 0.02 62 1014.0
20260509180055 84 218 5.0 13.0 0.00 0.02 0.02 67 1014.0
20260509175815 83 218 10.0 14.0 0.00 0.02 0.02 65 1013.9
20260509175056 84 218 4.0 16.0 0.00 0.02 0.02 67 1013.9
20260509174556 84 216 5.0 19.0 0.00 0.02 0.02 66 1013.8
20260509174043 84 193 9.0 19.0 0.00 0.02 0.02 65 1014.0
20260509173543 84 175 9.0 16.0 0.00 0.02 0.02 69 1013.9
20260509173043 84 250 12.0 16.0 0.00 0.02 0.02 67 1014.1
20260509172543 84 191 7.0 17.0 0.00 0.02 0.02 69 1014.1
20260509172044 83 212 8.0 17.0 0.00 0.02 0.02 68 1014.0
20260509171544 83 194 6.0 15.0 0.00 0.02 0.02 69 1014.1
20260509171043 83 232 5.0 15.0 0.00 0.02 0.02 69 1014.1
20260509170544 83 178 11.0 18.0 0.00 0.02 0.02 68 1014.1
20260509170044 83 169 10.0 18.0 0.00 0.02 0.02 69 1014.0
20260509165545 83 166 7.0 14.0 0.00 0.02 0.02 67 1014.2
20260509165044 83 177 9.0 14.0 0.00 0.02 0.02 68 1014.0
20260509164543 82 181 10.0 14.0 0.00 0.02 0.02 71 1014.1
20260509164312 82 161 6.0 16.0 0.00 0.02 0.02 71 1014.3
20260509163543 82 194 9.0 16.0 0.00 0.02 0.02 71 1014.2
20260509163043 82 200 9.0 17.0 0.00 0.02 0.02 70 1014.4
20260509162544 82 148 9.0 17.0 0.00 0.02 0.02 71 1014.5
20260509161544 81 166 6.0 15.0 0.00 0.02 0.02 73 1014.3
20260509161044 81 158 6.0 16.0 0.00 0.02 0.02 70 1014.3
20260509160543 81 196 5.0 16.0 0.00 0.02 0.02 73 1014.4
20260509160043 81 164 7.0 16.0 0.00 0.02 0.02 73 1014.4
20260509155543 81 198 8.0 14.0 0.00 0.02 0.02 72 1014.5
20260509155043 80 188 5.0 11.0 0.00 0.02 0.02 74 1014.3
20260509154544 80 185 6.0 10.0 0.00 0.02 0.02 74 1014.4
20260509154044 80 165 8.0 10.0 0.00 0.02 0.02 77 1014.3
20260509153544 79 151 6.0 11.0 0.00 0.02 0.02 78 1014.0
20260509153044 78 158 4.0 11.0 0.00 0.02 0.02 79 1013.9
20260509152543 78 175 6.0 10.0 0.00 0.02 0.02 80 1013.9
20260509151543 77 178 6.0 9.0 0.00 0.02 0.02 82 1013.6
20260509151304 76 138 5.0 9.0 0.00 0.02 0.02 83 1013.8
20260509150544 76 189 4.0 10.0 0.00 0.02 0.02 84 1013.9
20260509150044 75 159 2.0 11.0 0.00 0.02 0.02 87 1014.0
20260509145544 74 171 4.0 13.0 0.00 0.02 0.02 89 1013.9
20260509145305 73 181 4.0 14.0 0.00 0.02 0.02 91 1013.9
20260509144805 72 163 9.0 14.0 0.00 0.02 0.02 91 1013.9
20260509143543 71 148 2.0 16.0 0.00 0.02 0.02 93 1014.1
20260509143044 71 199 4.0 22.0 0.00 0.02 0.02 93 1013.4
20260509142543 71 149 8.0 22.0 0.00 0.02 0.02 94 1012.8
20260509142044 70 182 9.0 19.0 0.00 0.02 0.02 94 1012.5
20260509141544 70 172 9.0 19.0 0.00 0.02 0.02 94 1012.6
20260509141043 71 187 10.0 19.0 0.00 0.02 0.02 94 1012.8
20260509140809 71 166 10.0 15.0 0.00 0.02 0.02 93 1012.8
20260509140304 71 159 8.0 15.0 0.00 0.02 0.02 94 1012.5
20260509135544 71 197 8.0 13.0 0.00 0.02 0.02 96 1012.8
20260509134544 70 176 6.0 9.0 0.00 0.02 0.02 98 1013.1
20260509134044 70 162 6.0 7.0 0.00 0.02 0.02 99 1013.0
20260509133544 69 166 2.0 6.0 0.00 0.02 0.02 98 1013.2
20260509133044 68 165 1.0 7.0 0.00 0.02 0.02 98 1013.1
20260509132543 68 166 4.0 8.0 0.00 0.02 0.02 98 1013.1
20260509132043 68 147 5.0 8.0 0.00 0.02 0.02 98 1013.2
20260509131544 68 178 4.0 10.0 0.00 0.02 0.02 98 1013.4
20260509131043 68 164 3.0 10.0 0.00 0.02 0.02 98 1013.3
20260509130543 67 182 5.0 8.0 0.00 0.02 0.02 98 1013.4
20260509130044 67 236 1.0 8.0 0.00 0.02 0.02 98 1013.7
20260509125544 67 191 5.0 7.0 0.00 0.02 0.02 98 1013.8
20260509124543 67 214 4.0 8.0 0.00 0.02 0.02 99 1013.8
20260509124043 67 180 4.0 8.0 0.00 0.02 0.02 99 1013.5
20260509123543 66 195 4.0 7.0 0.00 0.02 0.02 98 1013.3
20260509123043 66 169 4.0 7.0 0.00 0.02 0.02 98 1013.2
20260509122801 66 166 4.0 7.0 0.00 0.02 0.02 98 1013.2
20260509122044 66 143 4.0 4.0 0.00 0.02 0.02 98 1013.5
20260509121544 66 355 1.0 2.0 0.00 0.02 0.02 98 1013.4
20260509121048 66 356 1.0 2.0 0.00 0.02 0.02 98 1013.4
20260509120544 66 356 0.0 2.0 0.01 0.02 0.02 98 1013.5
20260509115543 67 357 1.0 3.0 0.01 0.02 0.02 98 1013.9
20260509115043 67 355 1.0 9.0 0.01 0.02 0.02 98 1013.9
20260509114543 67 8 1.0 10.0 0.01 0.02 0.02 98 1014.1
20260509114044 67 22 6.0 10.0 0.01 0.02 0.02 98 1014.1
20260509113544 67 342 3.0 8.0 0.02 0.02 0.02 98 1014.1
20260509113044 67 11 3.0 6.0 0.02 0.02 0.02 98 1014.2
20260509112543 67 26 0.0 7.0 0.02 0.02 0.02 98 1014.0
20260509112044 67 20 3.0 10.0 0.02 0.02 0.02 98 1014.2
20260509111544 67 8 5.0 10.0 0.02 0.02 0.02 98 1014.2
20260509111044 67 21 6.0 11.0 0.02 0.02 0.02 98 1014.3
20260509110544 67 6 6.0 11.0 0.01 0.01 0.01 98 1014.5
20260509105544 67 344 6.0 15.0 0.01 0.01 0.01 98 1014.3
20260509105044 67 313 9.0 11.0 0.01 0.01 0.01 98 1014.5
20260509104544 67 346 4.0 14.0 0.01 0.01 0.01 98 1014.4
20260509104045 67 335 6.0 19.0 0.01 0.01 0.01 98 1014.7
20260509103544 67 358 6.0 19.0 0.00 0.00 0.00 98 1014.7
20260509103044 67 358 7.0 18.0 0.00 0.00 0.00 98 1014.7
20260509102544 67 344 7.0 18.0 0.00 0.00 0.00 98 1014.5
20260509102044 68 356 6.0 17.0 0.00 0.00 0.00 98 1014.5
20260509101544 68 7 7.0 17.0 0.00 0.00 0.00 98 1014.2
20260509101307 68 14 10.0 15.0 0.00 0.00 0.00 98 1014.1
20260509100543 68 335 3.0 9.0 0.00 0.00 0.00 98 1013.4
20260509100043 68 160 5.0 9.0 0.00 0.00 0.00 98 1012.8
20260509095544 68 139 4.0 7.0 0.00 0.00 0.00 98 1012.3
20260509095043 68 140 5.0 7.0 0.00 0.00 0.00 98 1012.3
20260509094543 68 144 2.0 4.0 0.00 0.00 0.00 98 1012.3
20260509094043 68 123 1.0 4.0 0.00 0.00 0.00 98 1012.8
20260509093544 68 120 2.0 6.0 0.00 0.00 0.00 98 1012.5
20260509093309 68 122 3.0 6.0 0.00 0.00 0.00 98 1012.3
20260509092544 68 138 2.0 3.0 0.00 0.00 0.00 98 1012.2
20260509092044 68 139 2.0 3.0 0.00 0.00 0.00 97 1012.1
20260509091805 68 132 1.0 3.0 0.00 0.00 0.00 97 1012.1
20260509091044 68 131 2.0 3.0 0.00 0.00 0.00 97 1012.2
20260509090543 68 131 0.0 3.0 0.00 0.00 0.00 97 1012.5
20260509090043 68 190 1.0 2.0 0.00 0.00 0.00 97 1012.4
20260509085543 68 190 0.0 2.0 0.00 0.00 0.00 97 1012.6
20260509085259 68 190 1.0 2.0 0.00 0.00 0.00 97 1012.6
20260509084544 68 190 1.0 2.0 0.00 0.00 0.00 97 1012.9
20260509084044 68 190 1.0 2.0 0.00 0.00 0.00 97 1013.1
20260509083043 68 191 0.0 1.0 0.00 0.00 0.00 97 1013.0
20260509082806 68 191 0.0 1.0 0.00 0.00 0.00 97 1013.0
20260509082044 68 191 0.0 1.0 0.00 0.00 0.00 97 1012.9
20260509081044 68 191 0.0 2.0 0.00 0.00 0.00 97 1013.0
20260509080544 68 191 0.0 2.0 0.00 0.00 0.00 97 1013.1
20260509080044 68 191 0.0 2.0 0.00 0.00 0.00 97 1012.9
20260509075544 68 191 1.0 1.0 0.00 0.00 0.00 97 1013.2
20260509075044 68 191 0.0 1.0 0.00 0.00 0.00 97 1013.2
20260509074544 68 191 0.0 1.0 0.00 0.00 0.00 97 1013.3
20260509074043 68 191 0.0 1.0 0.00 0.00 0.00 97 1013.3
20260509073544 68 191 0.0 1.0 0.00 0.00 0.00 97 1013.3
20260509073044 68 191 0.0 1.0 0.00 0.00 0.00 97 1013.2
20260509072544 68 191 0.0 3.0 0.00 0.00 0.00 97 1013.3
20260509072043 68 191 0.0 3.0 0.00 0.00 0.00 97 1013.0
20260509071544 68 191 1.0 6.0 0.00 0.00 0.00 97 1013.1
20260509071044 68 167 2.0 6.0 0.00 0.00 0.00 97 1013.1
20260509070803 68 183 4.0 7.0 0.00 0.00 0.00 97 1013.1
20260509070043 68 174 2.0 7.0 0.00 0.00 0.00 97 1013.1
20260509065544 68 180 2.0 6.0 0.00 0.00 0.00 97 1013.1
20260509065044 68 184 2.0 6.0 0.00 0.00 0.00 97 1012.9
20260509064544 68 200 3.0 8.0 0.00 0.00 0.00 97 1012.9
20260509064044 68 230 4.0 8.0 0.00 0.00 0.00 97 1013.0
20260509063544 68 223 4.0 8.0 0.00 0.00 0.00 97 1012.8
20260509063044 68 210 3.0 8.0 0.00 0.00 0.00 97 1012.6
20260509062544 68 217 3.0 8.0 0.00 0.00 0.00 97 1012.3
20260509062044 68 213 2.0 11.0 0.00 0.00 0.00 97 1012.6
20260509061545 68 189 6.0 11.0 0.00 0.00 0.00 97 1012.6
20260509061044 68 190 7.0 14.0 0.00 0.00 0.00 97 1012.4
20260509060544 68 139 6.0 17.0 0.00 0.00 0.00 97 1012.4
20260509060044 68 188 6.0 17.0 0.00 0.00 0.00 97 1012.8
20260509055544 67 187 11.0 16.0 0.00 0.00 0.00 97 1012.4
20260509055044 67 180 8.0 16.0 0.00 0.00 0.00 97 1012.5
20260509054544 67 184 9.0 16.0 0.00 0.00 0.00 97 1013.0
20260509054044 67 171 8.0 19.0 0.00 0.00 0.00 97 1012.6
20260509053044 67 171 10.0 17.0 0.00 0.00 0.00 97 1012.8
20260509052543 67 181 11.0 17.0 0.00 0.00 0.00 97 1012.9
20260509052043 67 162 10.0 17.0 0.00 0.00 0.00 97 1012.6
20260509051543 67 164 12.0 17.0 0.00 0.00 0.00 97 1012.9
20260509051043 67 174 8.0 15.0 0.00 0.00 0.00 98 1012.6
20260509050544 67 179 6.0 17.0 0.00 0.00 0.00 98 1012.9
20260509050043 67 178 10.0 17.0 0.00 0.00 0.00 98 1012.5
20260509045544 67 151 8.0 16.0 0.00 0.00 0.00 98 1012.8
20260509045044 67 177 11.0 16.0 0.00 0.00 0.00 98 1012.8
20260509044544 66 183 8.0 14.0 0.00 0.00 0.00 97 1012.3
20260509044043 66 181 10.0 13.0 0.00 0.00 0.00 97 1012.2
20260509043543 66 164 7.0 11.0 0.00 0.00 0.00 97 1011.9
20260509043043 66 157 6.0 10.0 0.00 0.00 0.00 97 1011.7
20260509042543 66 185 6.0 10.0 0.00 0.00 0.00 97 1011.5
20260509042044 66 174 6.0 10.0 0.00 0.00 0.00 97 1011.7
20260509041543 66 151 6.0 9.0 0.00 0.00 0.00 97 1011.7
20260509041044 66 143 6.0 11.0 0.00 0.00 0.00 96 1011.8
20260509040544 66 151 6.0 9.0 0.00 0.00 0.00 96 1011.8
20260509040044 66 143 6.0 13.0 0.00 0.00 0.00 96 1011.6
20260509035543 66 127 6.0 13.0 0.00 0.00 0.00 96 1011.8
20260509035043 66 121 7.0 11.0 0.00 0.00 0.00 96 1011.7
20260509034543 66 139 7.0 9.0 0.00 0.00 0.00 96 1012.0
20260509034044 66 158 6.0 10.0 0.00 0.00 0.00 96 1012.0